FW0153 Weather Reports


Display with metric or nautical units.
time (UTC)temp
F
wind
direction
speed
MPH
gust
MPH
rain 1hr
in
rain 24hr
in
rain mn
in
humidity
%
barometer
mb
20260901042005 80 73 9.0 0.0 0.00 0.00 0.00 76 1013.3
20260901041504 80 141 4.0 0.0 0.00 0.00 0.00 76 1013.3
20260901041005 80 319 13.0 0.0 0.00 0.00 0.00 75 1013.3
20260901040505 80 98 9.0 0.0 0.00 0.00 0.00 75 1013.3
20260901040005 80 149 9.0 0.0 0.00 0.00 0.00 75 1013.3
20260901035712 80 49 0.0 0.0 0.00 0.00 0.00 74 1013.3
20260901035005 80 116 4.0 0.0 0.00 0.00 0.00 74 1013.3
20260901034505 80 62 4.0 0.0 0.00 0.00 0.00 74 1013.3
20260901034005 80 62 9.0 0.0 0.00 0.00 0.00 74 1013.3
20260901033505 80 102 4.0 0.0 0.00 0.00 0.00 73 1013.0
20260901033004 80 99 18.0 0.0 0.00 0.00 0.00 73 1013.0
20260901032505 80 110 13.0 0.0 0.00 0.00 0.00 72 1013.0
20260901032005 80 68 9.0 0.0 0.00 0.00 0.00 72 1013.3
20260901031712 80 140 4.0 0.0 0.00 0.00 0.00 71 1013.0
20260901031005 80 83 4.0 0.0 0.00 0.00 0.00 71 1013.0
20260901030505 80 108 4.0 0.0 0.00 0.00 0.00 70 1012.7
20260901030004 81 62 9.0 0.0 0.00 0.00 0.00 70 1012.7
20260901025505 81 103 13.0 0.0 0.00 0.00 0.00 70 1012.3
20260901025213 81 37 9.0 0.0 0.00 0.00 0.00 69 1012.3
20260901024713 81 78 18.0 0.0 0.00 0.00 0.00 68 1012.3
20260901024212 81 17 13.0 0.0 0.00 0.00 0.00 67 1012.0
20260901023505 81 107 18.0 0.0 0.00 0.00 0.00 67 1012.0
20260901023212 81 87 4.0 0.0 0.00 0.00 0.00 66 1011.6
20260901022505 82 109 13.0 0.0 0.00 0.00 0.00 66 1011.6
20260901022212 82 96 13.0 0.0 0.00 0.00 0.00 65 1012.0
20260901021711 82 33 4.0 0.0 0.00 0.00 0.00 65 1011.6
20260901021005 82 143 9.0 0.0 0.00 0.00 0.00 64 1011.6
20260901020505 82 63 13.0 0.0 0.00 0.00 0.00 64 1011.3
20260901020212 82 63 13.0 0.0 0.00 0.00 0.00 63 1011.3
20260901015505 83 107 13.0 0.0 0.00 0.00 0.00 63 1011.3
20260901015005 83 34 23.0 0.0 0.00 0.00 0.00 62 1011.0
20260901014505 83 55 4.0 0.0 0.00 0.00 0.00 62 1011.0
20260901014005 83 63 13.0 0.0 0.00 0.00 0.00 60 1011.0
20260901013505 83 43 4.0 0.0 0.00 0.00 0.00 60 1011.3
20260901013005 83 104 13.0 0.0 0.00 0.00 0.00 59 1011.0
20260901012505 83 122 0.0 0.0 0.00 0.00 0.00 57 1011.0
20260901012005 83 114 4.0 0.0 0.00 0.00 0.00 56 1011.0
20260901011505 84 81 13.0 0.0 0.00 0.00 0.00 55 1010.6
20260901011004 84 82 18.0 0.0 0.00 0.00 0.00 54 1010.6
20260901010505 84 43 13.0 0.0 0.00 0.00 0.00 53 1010.6
20260901010005 85 45 9.0 0.0 0.00 0.00 0.00 52 1010.6
20260901005713 85 28 32.0 0.0 0.00 0.00 0.00 51 1010.6
20260901005005 85 64 13.0 0.0 0.00 0.00 0.00 51 1010.6
20260901004504 85 55 9.0 0.0 0.00 0.00 0.00 50 1010.3
20260901004005 86 49 9.0 0.0 0.00 0.00 0.00 49 1010.3
20260901003505 86 40 18.0 0.0 0.00 0.00 0.00 48 1010.3
20260901003005 86 201 13.0 0.0 0.00 0.00 0.00 49 1010.3
20260901002505 86 75 13.0 0.0 0.00 0.00 0.00 48 1010.3
20260901002005 86 12 9.0 0.0 0.00 0.00 0.00 47 1009.9
20260901001505 87 193 13.0 0.0 0.00 0.00 0.00 46 1009.9
20260901001004 87 109 18.0 0.0 0.00 0.00 0.00 45 1010.3
20260901000713 87 99 13.0 0.0 0.00 0.00 0.00 45 1009.9
20260901000005 88 261 13.0 0.0 0.00 0.00 0.00 44 1009.6
20260831235505 88 2 13.0 0.0 0.00 0.00 0.00 44 1009.6
20260831235211 88 112 23.0 0.0 0.00 0.00 0.00 43 1009.6
20260831234505 89 340 23.0 0.0 0.00 0.00 0.00 43 1009.6
20260831234005 89 42 23.0 0.0 0.00 0.00 0.00 42 1009.6
20260831233505 89 110 0.0 0.0 0.00 0.00 0.00 41 1009.6
20260831233213 89 348 13.0 0.0 0.00 0.00 0.00 40 1009.6
20260831232505 89 91 13.0 0.0 0.00 0.00 0.00 40 1009.6
20260831232211 90 96 27.0 0.0 0.00 0.00 0.00 40 1009.6
20260831231505 90 67 4.0 0.0 0.00 0.00 0.00 40 1009.6
20260831231005 90 44 9.0 0.0 0.00 0.00 0.00 40 1009.6
20260831230505 90 77 18.0 0.0 0.00 0.00 0.00 40 1009.6
20260831230213 91 50 9.0 0.0 0.00 0.00 0.00 40 1009.3
20260831225505 91 60 23.0 0.0 0.00 0.00 0.00 39 1009.3
20260831225211 92 51 23.0 0.0 0.00 0.00 0.00 37 1009.6
20260831224505 92 140 0.0 0.0 0.00 0.00 0.00 36 1009.6
20260831224005 92 131 13.0 0.0 0.00 0.00 0.00 36 1009.6
20260831223505 92 138 13.0 0.0 0.00 0.00 0.00 35 1009.6
20260831223213 92 80 4.0 0.0 0.00 0.00 0.00 34 1009.6
20260831222505 92 49 41.0 0.0 0.00 0.00 0.00 33 1009.6
20260831222005 93 108 18.0 0.0 0.00 0.00 0.00 33 1009.3
20260831221504 93 158 4.0 0.0 0.00 0.00 0.00 30 1009.6
20260831221005 94 131 27.0 0.0 0.00 0.00 0.00 30 1009.6
20260831220505 93 107 13.0 0.0 0.00 0.00 0.00 30 1009.6
20260831220213 94 144 13.0 0.0 0.00 0.00 0.00 30 1009.6
20260831215505 93 77 18.0 0.0 0.00 0.00 0.00 31 1009.6
20260831215213 93 86 4.0 0.0 0.00 0.00 0.00 32 1009.6
20260831214504 94 74 4.0 0.0 0.00 0.00 0.00 31 1009.6
20260831214213 94 45 4.0 0.0 0.00 0.00 0.00 31 1009.6
20260831213505 93 52 0.0 0.0 0.00 0.00 0.00 32 1009.6
20260831213005 94 24 13.0 0.0 0.00 0.00 0.00 31 1009.9
20260831212505 94 139 4.0 0.0 0.00 0.00 0.00 32 1009.6
20260831212005 94 82 13.0 0.0 0.00 0.00 0.00 32 1009.9
20260831211505 94 85 9.0 0.0 0.00 0.00 0.00 32 1009.9
20260831211004 94 158 4.0 0.0 0.00 0.00 0.00 32 1009.9
20260831210505 94 115 9.0 0.0 0.00 0.00 0.00 32 1010.3
20260831210005 93 90 13.0 0.0 0.00 0.00 0.00 33 1009.9
20260831205505 93 101 9.0 0.0 0.00 0.00 0.00 34 1009.9
20260831205005 93 45 9.0 0.0 0.00 0.00 0.00 34 1010.3
20260831204505 93 79 13.0 0.0 0.00 0.00 0.00 34 1010.3
20260831204212 94 36 13.0 0.0 0.00 0.00 0.00 33 1010.3
20260831203505 94 32 9.0 0.0 0.00 0.00 0.00 33 1010.6
20260831203212 95 131 13.0 0.0 0.00 0.00 0.00 32 1010.6
20260831202505 95 1 9.0 0.0 0.00 0.00 0.00 31 1010.6
20260831202005 95 49 4.0 0.0 0.00 0.00 0.00 29 1010.6
20260831201505 94 49 13.0 0.0 0.00 0.00 0.00 29 1010.6
20260831201005 94 57 13.0 0.0 0.00 0.00 0.00 29 1011.0
20260831200505 95 76 9.0 0.0 0.00 0.00 0.00 29 1011.0
20260831200005 94 169 13.0 0.0 0.00 0.00 0.00 30 1011.0
20260831195505 94 128 9.0 0.0 0.00 0.00 0.00 31 1011.0
20260831195005 95 41 13.0 0.0 0.00 0.00 0.00 31 1011.0
20260831194505 95 52 9.0 0.0 0.00 0.00 0.00 32 1011.0
20260831194005 95 158 4.0 0.0 0.00 0.00 0.00 33 1011.3
20260831193505 93 76 4.0 0.0 0.00 0.00 0.00 34 1011.3
20260831193212 93 128 13.0 0.0 0.00 0.00 0.00 33 1011.3
20260831192505 94 338 13.0 0.0 0.00 0.00 0.00 33 1011.3
20260831192004 95 100 9.0 0.0 0.00 0.00 0.00 34 1011.6
20260831191505 93 141 9.0 0.0 0.00 0.00 0.00 33 1011.6
20260831191005 93 82 9.0 0.0 0.00 0.00 0.00 34 1011.6
20260831190713 93 60 23.0 0.0 0.00 0.00 0.00 34 1011.6
20260831190005 94 177 18.0 0.0 0.00 0.00 0.00 34 1011.6
20260831185505 93 152 9.0 0.0 0.00 0.00 0.00 34 1011.6
20260831185005 94 50 27.0 0.0 0.00 0.00 0.00 33 1011.6
20260831184505 93 100 13.0 0.0 0.00 0.00 0.00 32 1012.0
20260831184004 92 50 13.0 0.0 0.00 0.00 0.00 35 1012.0
20260831183505 93 142 27.0 0.0 0.00 0.00 0.00 34 1012.0
20260831183005 93 86 13.0 0.0 0.00 0.00 0.00 36 1012.0
20260831182505 92 61 4.0 0.0 0.00 0.00 0.00 36 1012.0
20260831182005 92 192 18.0 0.0 0.00 0.00 0.00 36 1012.0
20260831181505 92 152 4.0 0.0 0.00 0.00 0.00 37 1012.3
20260831181005 92 181 13.0 0.0 0.00 0.00 0.00 37 1012.3
20260831180712 92 33 13.0 0.0 0.00 0.00 0.00 37 1012.3
20260831180005 92 153 9.0 0.0 0.00 0.00 0.00 37 1012.3
20260831175505 91 2 9.0 0.0 0.00 0.00 0.00 38 1012.3
20260831175005 91 156 9.0 0.0 0.00 0.00 0.00 41 1012.7
20260831174712 91 102 9.0 0.0 0.00 0.00 0.00 39 1012.7
20260831174004 92 93 9.0 0.0 0.00 0.00 0.00 39 1012.7
20260831173505 90 87 9.0 0.0 0.00 0.00 0.00 41 1012.7
20260831173005 91 28 9.0 0.0 0.00 0.00 0.00 40 1012.7
20260831172505 90 113 9.0 0.0 0.00 0.00 0.00 41 1012.7
20260831172005 90 34 4.0 0.0 0.00 0.00 0.00 40 1013.0
20260831171505 90 70 4.0 0.0 0.00 0.00 0.00 42 1013.0
20260831171005 90 96 4.0 0.0 0.00 0.00 0.00 43 1013.0
20260831170506 89 19 4.0 0.0 0.00 0.00 0.00 44 1012.7
20260831170005 90 106 4.0 0.0 0.00 0.00 0.00 43 1013.3
20260831165505 89 175 13.0 0.0 0.00 0.00 0.00 43 1013.0
20260831165005 89 201 13.0 0.0 0.00 0.00 0.00 44 1013.0
20260831164712 89 58 9.0 0.0 0.00 0.00 0.00 45 1013.0
20260831164213 88 143 13.0 0.0 0.00 0.00 0.00 48 1013.0
20260831163712 88 175 9.0 0.0 0.00 0.00 0.00 47 1013.0
20260831163005 88 148 9.0 0.0 0.00 0.00 0.00 50 1013.0
20260831162505 88 136 13.0 0.0 0.00 0.00 0.00 49 1013.3
20260831162005 88 118 13.0 0.0 0.00 0.00 0.00 50 1013.3
20260831161505 87 164 13.0 0.0 0.00 0.00 0.00 53 1013.0
20260831161004 87 106 9.0 0.0 0.00 0.00 0.00 52 1013.3
20260831160505 87 62 13.0 0.0 0.00 0.00 0.00 52 1013.3
20260831160005 87 144 4.0 0.0 0.00 0.00 0.00 52 1013.0
20260831155505 86 244 13.0 0.0 0.00 0.00 0.00 55 1013.3
20260831155005 86 233 13.0 0.0 0.00 0.00 0.00 57 1013.3
20260831154505 86 110 13.0 0.0 0.00 0.00 0.00 58 1013.3
20260831154005 85 121 4.0 0.0 0.00 0.00 0.00 59 1013.3
20260831153505 85 75 13.0 0.0 0.00 0.00 0.00 59 1013.3
20260831153004 85 146 4.0 0.0 0.00 0.00 0.00 61 1013.3
20260831152505 84 184 13.0 0.0 0.00 0.00 0.00 61 1013.3
20260831152005 84 144 18.0 0.0 0.00 0.00 0.00 61 1013.3
20260831151505 85 120 9.0 0.0 0.00 0.00 0.00 61 1013.3
20260831151005 85 270 9.0 0.0 0.00 0.00 0.00 62 1013.3
20260831150711 85 136 4.0 0.0 0.00 0.00 0.00 63 1013.3
20260831150005 83 169 13.0 0.0 0.00 0.00 0.00 64 1013.3
20260831145505 83 107 13.0 0.0 0.00 0.00 0.00 67 1013.3
20260831145212 83 175 13.0 0.0 0.00 0.00 0.00 67 1013.3
20260831144505 83 157 13.0 0.0 0.00 0.00 0.00 68 1013.3
20260831144005 82 61 0.0 0.0 0.00 0.00 0.00 71 1013.3
20260831143713 82 143 27.0 0.0 0.00 0.00 0.00 71 1013.3
20260831143005 82 175 9.0 0.0 0.00 0.00 0.00 73 1013.3
20260831142505 82 139 9.0 0.0 0.00 0.00 0.00 73 1013.3
20260831142005 82 179 13.0 0.0 0.00 0.00 0.00 74 1013.3
20260831141504 82 107 13.0 0.0 0.00 0.00 0.00 73 1013.7
20260831141005 81 158 4.0 0.0 0.00 0.00 0.00 75 1013.3
20260831140713 81 91 18.0 0.0 0.00 0.00 0.00 76 1013.3
20260831140005 81 64 13.0 0.0 0.00 0.00 0.00 76 1013.0
20260831135505 80 89 13.0 0.0 0.00 0.00 0.00 77 1013.3
20260831135005 80 150 9.0 0.0 0.00 0.00 0.00 78 1013.0
20260831134505 80 173 9.0 0.0 0.00 0.00 0.00 79 1013.3
20260831134004 80 36 9.0 0.0 0.00 0.00 0.00 81 1013.0
20260831133713 79 117 0.0 0.0 0.00 0.00 0.00 82 1013.0
20260831133005 79 62 9.0 0.0 0.00 0.00 0.00 82 1013.0
20260831132505 79 114 0.0 0.0 0.00 0.00 0.00 83 1013.0
20260831132005 78 123 4.0 0.0 0.00 0.00 0.00 84 1013.0
20260831131505 78 86 4.0 0.0 0.00 0.00 0.00 84 1012.7
20260831131005 78 104 4.0 0.0 0.00 0.00 0.00 85 1013.0
20260831130505 77 88 4.0 0.0 0.00 0.00 0.00 85 1012.7
20260831130005 77 116 0.0 0.0 0.00 0.00 0.00 86 1012.7
20260831125505 77 133 4.0 0.0 0.00 0.00 0.00 86 1012.7
20260831125211 77 109 0.0 0.0 0.00 0.00 0.00 86 1012.7
20260831124505 77 107 4.0 0.0 0.00 0.00 0.00 87 1012.7
20260831124005 77 139 0.0 0.0 0.00 0.00 0.00 87 1012.7
20260831123505 77 139 0.0 0.0 0.00 0.00 0.00 87 1012.3
20260831123213 77 91 0.0 0.0 0.00 0.00 0.00 87 1012.3
20260831122712 77 115 0.0 0.0 0.00 0.00 0.00 87 1012.3
20260831122005 77 108 4.0 0.0 0.00 0.00 0.00 87 1012.3
20260831121712 77 104 0.0 0.0 0.00 0.00 0.00 87 1012.0
20260831121005 77 56 9.0 0.0 0.00 0.00 0.00 87 1012.3
20260831120505 77 136 0.0 0.0 0.00 0.00 0.00 87 1012.0
20260831120004 77 119 0.0 0.0 0.00 0.00 0.00 86 1012.0
20260831115505 77 102 0.0 0.0 0.00 0.00 0.00 86 1012.0
20260831115005 77 111 0.0 0.0 0.00 0.00 0.00 86 1011.6
20260831114712 77 135 0.0 0.0 0.00 0.00 0.00 86 1012.0
20260831114005 77 123 0.0 0.0 0.00 0.00 0.00 86 1011.6
20260831113505 77 137 4.0 0.0 0.00 0.00 0.00 86 1012.0
20260831113213 77 116 4.0 0.0 0.00 0.00 0.00 85 1011.6
20260831112505 77 111 0.0 0.0 0.00 0.00 0.00 85 1011.6
20260831112213 77 107 0.0 0.0 0.00 0.00 0.00 85 1012.0
20260831111504 78 60 0.0 0.0 0.00 0.00 0.00 84 1012.3
20260831111004 78 105 0.0 0.0 0.00 0.00 0.00 84 1012.0
20260831110712 78 106 9.0 0.0 0.00 0.00 0.00 84 1012.0
20260831110005 78 131 0.0 0.0 0.00 0.00 0.00 83 1012.0
20260831105505 78 119 0.0 0.0 0.00 0.00 0.00 83 1012.0
20260831105005 78 111 0.0 0.0 0.00 0.00 0.00 83 1011.6
20260831104505 78 84 0.0 0.0 0.00 0.00 0.00 83 1012.0
20260831104004 78 127 0.0 0.0 0.00 0.00 0.00 83 1012.0
20260831103505 78 95 0.0 0.0 0.00 0.00 0.00 82 1012.0
20260831103005 78 72 9.0 0.0 0.00 0.00 0.00 82 1011.6
20260831102505 78 142 9.0 0.0 0.00 0.00 0.00 82 1011.6
20260831102005 78 84 9.0 0.0 0.00 0.00 0.00 82 1011.6
20260831101505 78 118 4.0 0.0 0.00 0.00 0.00 82 1012.0
20260831101005 78 153 4.0 0.0 0.00 0.00 0.00 82 1012.0
20260831100505 79 139 4.0 0.0 0.00 0.00 0.00 82 1012.0
20260831100005 79 149 9.0 0.0 0.00 0.00 0.00 82 1012.0
20260831095504 79 149 9.0 0.0 0.00 0.00 0.00 82 1012.0
20260831095005 79 118 0.0 0.0 0.00 0.00 0.00 82 1012.0
20260831094505 79 121 4.0 0.0 0.00 0.00 0.00 82 1012.0
20260831094005 79 59 9.0 0.0 0.00 0.00 0.00 82 1012.0
20260831093505 79 120 4.0 0.0 0.00 0.00 0.00 82 1011.6
20260831093212 79 134 0.0 0.0 0.00 0.00 0.00 82 1011.6
20260831092505 79 170 9.0 0.0 0.00 0.00 0.00 82 1012.0
20260831092005 79 154 4.0 0.0 0.00 0.00 0.00 82 1011.6
20260831091713 79 147 4.0 0.0 0.00 0.00 0.00 81 1011.6
20260831091004 79 167 9.0 0.0 0.00 0.00 0.00 81 1011.6
20260831090505 79 121 13.0 0.0 0.00 0.00 0.00 81 1011.6
20260831090005 79 117 0.0 0.0 0.00 0.00 0.00 81 1012.3
20260831085713 79 96 0.0 0.0 0.00 0.00 0.00 81 1012.0
20260831085212 79 43 9.0 0.0 0.00 0.00 0.00 81 1012.0
20260831084505 80 126 4.0 0.0 0.00 0.00 0.00 80 1012.0
20260831084005 80 97 13.0 0.0 0.00 0.00 0.00 80 1012.3
20260831083713 80 154 9.0 0.0 0.00 0.00 0.00 80 1012.3
20260831083212 80 91 9.0 0.0 0.00 0.00 0.00 80 1012.3
20260831082505 80 50 23.0 0.0 0.00 0.00 0.00 79 1012.0
20260831082005 80 183 18.0 0.0 0.00 0.00 0.00 79 1012.3
20260831081504 80 167 23.0 0.0 0.00 0.00 0.00 80 1012.0
20260831081005 80 87 0.0 0.0 0.00 0.00 0.00 80 1012.0
20260831080713 80 168 27.0 0.0 0.00 0.00 0.00 80 1012.3
20260831080213 80 169 4.0 0.0 0.00 0.00 0.00 80 1012.3
20260831075712 80 117 0.0 0.0 0.00 0.00 0.00 81 1012.3
20260831075005 80 129 0.0 0.0 0.00 0.00 0.00 81 1012.3
20260831074504 80 85 0.0 0.0 0.00 0.00 0.00 81 1012.3
20260831074005 80 104 0.0 0.0 0.00 0.00 0.00 81 1012.3
20260831073505 80 144 4.0 0.0 0.00 0.00 0.00 81 1012.3
20260831073005 80 156 9.0 0.0 0.00 0.00 0.00 81 1012.3
20260831072505 80 170 9.0 0.0 0.00 0.00 0.00 81 1012.7
20260831072005 80 137 0.0 0.0 0.00 0.00 0.00 81 1012.3
20260831071505 80 175 4.0 0.0 0.00 0.00 0.00 81 1012.3
20260831071005 80 36 9.0 0.0 0.00 0.00 0.00 81 1012.7
20260831070505 80 83 4.0 0.0 0.00 0.00 0.00 81 1012.7
20260831070005 80 118 0.0 0.0 0.00 0.00 0.00 81 1012.7
20260831065505 80 117 4.0 0.0 0.00 0.00 0.00 81 1013.0
20260831065005 80 92 4.0 0.0 0.00 0.00 0.00 81 1013.0
20260831064505 80 152 4.0 0.0 0.00 0.00 0.00 81 1013.0
20260831064005 80 44 4.0 0.0 0.00 0.00 0.00 81 1013.0
20260831063505 80 129 9.0 0.0 0.00 0.00 0.00 81 1012.7
20260831063005 80 153 4.0 0.0 0.00 0.00 0.00 81 1013.0
20260831062712 80 58 9.0 0.0 0.00 0.00 0.00 80 1013.3
20260831062213 80 120 4.0 0.0 0.00 0.00 0.00 80 1013.0
20260831061504 80 105 4.0 0.0 0.00 0.00 0.00 80 1013.0
20260831061005 80 134 4.0 0.0 0.00 0.00 0.00 80 1013.0
20260831060712 80 29 0.0 0.0 0.00 0.00 0.00 80 1012.7
20260831060005 80 178 13.0 0.0 0.00 0.00 0.00 80 1013.0
20260831055712 80 66 0.0 0.0 0.00 0.00 0.00 80 1013.0
20260831055005 80 108 4.0 0.0 0.00 0.00 0.00 79 1013.0
20260831054505 80 82 4.0 0.0 0.00 0.00 0.00 79 1013.0
20260831054005 80 177 13.0 0.0 0.00 0.00 0.00 79 1012.7
20260831053505 80 88 0.0 0.0 0.00 0.00 0.00 79 1013.0
20260831053005 80 107 0.0 0.0 0.00 0.00 0.00 79 1013.0
20260831052711 80 63 13.0 0.0 0.00 0.00 0.00 79 1013.0
20260831052215 80 121 13.0 0.0 0.00 0.00 0.00 78 1013.0
20260831051712 80 111 4.0 0.0 0.00 0.00 0.00 78 1013.0
20260831051005 80 81 4.0 0.0 0.00 0.00 0.00 78 1013.3
20260831050505 80 69 0.0 0.0 0.00 0.00 0.00 78 1013.0
20260831045505 80 134 0.0 0.0 0.00 0.00 0.00 77 1013.0
20260831045004 80 38 18.0 0.0 0.00 0.00 0.00 77 1013.3
20260831044505 80 115 9.0 0.0 0.00 0.00 0.00 77 1013.3
20260831044005 80 77 9.0 0.0 0.00 0.00 0.00 77 1013.0
20260831043505 80 65 23.0 0.0 0.00 0.00 0.00 77 1013.3
20260831043005 80 162 13.0 0.0 0.00 0.00 0.00 77 1013.3
20260831042505 80 109 18.0 0.0 0.00 0.00 0.00 76 1013.3